GFSCGP_sfc_wetblb_000.txt.gz
Wetbulb
45.24 40.85 41.98 41.47 41.70 41.80 40.41 38.85 38.30 40.70 43.24 40.41 40.32 40.01 40.03 40.69 37.97 37.50 37.61 37.13 37.38 38.95 41.83 42.55 41.54 42.20 42.50 43.40 42.90 43.91 45.15 47.14 50.01 50.60 52.13 53.80 54.74 58.11 58.32 58.65 58.88 59.02 58.04 59.40
42.36 37.81 41.92 41.78 41.26 40.33 40.00 37.75 37.54 40.48 41.75 38.47 38.52 36.89 38.22 38.29 35.25 35.89 36.40 35.96 36.53 37.92 40.03 40.51 40.18 40.20 40.94 42.44 42.02 42.98 44.20 45.69 48.82 49.52 50.04 51.39 52.67 55.41 58.36 59.07 58.45 58.05 57.64 57.88
38.12 38.64 41.20 40.26 40.31 38.13 38.37 36.46 36.64 35.15 37.73 39.45 37.03 35.22 36.34 36.16 36.41 35.72 36.28 36.63 36.81 36.57 37.15 38.19 37.78 38.30 40.72 41.45 41.26 41.85 42.88 44.71 47.41 47.51 47.10 47.95 50.17 52.39 54.27 56.91 57.01 57.02 57.43 56.74
38.12 40.91 39.59 38.98 37.95 37.47 34.75 37.58 36.10 34.28 32.86 29.77 36.29 27.25 34.94 35.29 33.90 33.40 34.48 35.10 35.45 35.85 36.30 36.97 37.04 37.42 39.37 40.66 41.76 41.42 42.19 44.07 46.58 47.26 44.30 42.38 43.86 46.03 49.68 52.20 57.14 57.11 56.72 57.35
36.79 37.65 37.36 37.30 36.50 37.93 36.58 36.18 34.60 34.10 32.43 31.58 32.43 29.12 34.02 37.45 31.71 30.76 33.15 34.52 35.31 35.57 35.64 35.87 36.74 37.81 38.67 40.90 41.13 41.22 41.00 43.00 44.52 45.91 44.66 42.18 41.60 44.29 47.96 49.57 53.63 56.05 56.15 56.46
37.66 39.53 38.95 38.48 37.75 36.58 35.49 34.52 34.94 34.21 31.96 25.82 28.52 26.48 29.60 30.48 27.75 30.24 32.85 33.84 34.09 34.40 35.33 36.22 37.13 38.06 38.69 40.56 40.28 41.55 40.03 39.99 42.83 42.99 44.61 42.24 41.51 42.11 44.06 46.73 48.90 54.62 55.48 55.31
36.09 36.02 37.46 37.16 34.96 36.45 34.52 32.33 26.03 24.38 25.94 25.23 29.32 25.35 29.07 29.36 30.40 31.01 31.34 32.40 33.20 34.24 34.65 35.03 35.05 36.47 37.83 38.38 38.85 39.65 38.95 38.74 39.53 40.19 42.19 42.88 42.04 41.91 42.69 45.53 47.04 49.30 53.85 54.02
31.33 28.76 35.22 35.88 33.49 31.23 31.32 31.20 24.32 15.05 18.93 22.12 26.58 20.71 27.71 31.02 32.84 33.07 33.05 32.66 33.07 33.33 34.15 34.60 35.72 36.35 36.88 37.25 38.18 38.51 38.85 38.61 39.03 39.66 41.00 42.84 42.35 41.96 42.47 42.95 45.61 48.60 48.13 54.74
29.47 28.20 32.69 31.54 33.44 33.28 30.93 27.65 29.70 22.48 19.32 17.09 24.28 27.32 31.46 31.33 30.98 31.49 31.04 31.00 31.16 31.72 33.41 34.38 35.36 35.90 36.13 36.51 37.12 37.42 37.55 38.02 39.11 39.20 40.36 42.25 42.33 40.85 40.74 41.36 42.09 42.13 48.19 49.27
31.39 26.64 30.46 30.49 32.23 30.94 29.41 30.82 22.40 23.92 12.76 12.04 22.38 23.61 24.96 26.55 27.30 29.03 28.82 29.19 29.99 32.13 33.05 33.78 34.22 34.96 35.56 36.18 36.47 36.73 36.70 36.70 38.06 39.08 39.96 41.32 41.97 41.71 40.50 39.73 40.73 41.17 43.26 46.96
30.85 28.33 26.90 27.90 27.18 27.47 25.77 24.54 24.58 23.99 21.03 13.62 12.60 22.02 29.30 27.00 27.80 27.23 28.20 29.22 30.12 31.47 32.31 32.79 33.48 34.31 34.15 34.29 33.69 32.58 33.21 34.34 36.23 38.32 39.10 39.87 41.46 42.01 41.30 40.80 40.55 40.91 41.30 40.41
29.10 27.30 22.58 25.57 27.30 27.96 28.17 26.22 24.72 18.90 15.80 18.80 16.65 16.44 30.08 29.30 29.24 28.77 28.04 28.88 30.55 31.57 31.84 31.77 31.72 31.36 29.90 27.24 26.05 25.48 26.25 27.51 29.17 30.84 33.45 38.84 39.64 41.28 41.15 40.60 40.15 40.46 40.28 39.70
28.40 24.28 20.12 18.08 23.59 26.09 24.04 24.10 24.63 23.76 21.22 13.94 11.67 17.99 29.71 30.34 28.52 28.49 27.57 28.83 30.03 30.00 29.73 29.80 30.31 27.47 24.44 22.53 21.88 21.79 22.12 23.40 25.03 26.57 29.23 32.17 35.78 38.47 39.08 39.95 40.72 40.02 38.50 38.10
30.20 25.22 24.32 22.43 24.76 24.38 20.47 22.63 23.71 21.71 15.20 15.87 16.72 19.50 24.69 26.01 25.68 26.55 27.60 28.29 28.53 27.91 28.32 28.38 26.00 23.54 21.90 20.70 19.67 19.75 20.04 21.13 22.45 23.90 25.21 26.52 29.35 33.94 36.27 38.46 40.06 39.25 37.76 36.94
27.69 20.81 23.05 23.90 24.43 23.66 22.85 22.23 22.57 19.40 20.06 14.72 19.05 18.87 22.81 25.20 25.06 26.26 27.65 27.45 25.66 26.48 25.82 24.18 22.20 20.51 19.52 18.77 18.34 17.81 19.15 20.39 20.91 21.28 22.48 23.48 25.46 27.10 28.11 32.98 37.62 38.33 37.07 36.63
26.73 20.23 19.96 16.95 21.71 21.39 18.99 21.30 21.56 21.23 20.96 19.89 20.33 19.17 26.59 26.87 27.71 26.04 25.74 24.36 24.43 23.91 22.61 21.42 20.09 18.42 17.83 16.88 17.14 17.34 18.18 18.90 20.91 20.22 20.42 21.61 22.39 22.73 25.13 31.70 33.44 36.76 36.44 35.80
22.66 20.12 16.47 16.93 17.35 17.03 13.65 18.36 20.99 21.46 22.90 21.45 15.65 21.65 25.41 24.38 24.88 24.29 23.25 24.90 21.99 20.66 20.04 19.14 17.15 17.02 16.44 16.18 16.30 15.90 16.26 17.41 16.79 20.30 20.92 20.27 20.84 21.73 24.16 25.40 33.48 35.54 35.05 35.23
22.12 20.31 19.01 14.39 13.00 8.32 20.67 24.49 23.27 20.98 22.39 24.13 23.35 24.19 25.15 25.34 25.67 24.33 27.51 23.22 19.88 18.60 18.35 17.58 15.94 15.81 16.05 15.83 14.89 15.29 14.59 14.77 16.38 20.55 20.63 20.46 20.44 21.27 23.04 25.34 30.49 33.69 33.67 35.08
25.67 21.42 16.95 12.44 10.26 16.06 20.51 21.66 20.78 18.88 18.73 24.44 22.96 24.34 25.63 25.35 22.81 25.45 27.12 22.79 19.09 18.10 18.01 16.93 16.32 16.42 14.99 13.96 13.49 11.88 12.49 12.79 14.00 14.82 19.97 21.02 21.10 20.34 22.29 23.82 26.46 31.53 32.96 35.01
24.15 23.86 18.16 10.51 8.65 8.36 19.35 22.88 25.97 23.26 13.64 24.34 24.96 24.08 22.85 20.94 16.88 21.21 22.34 19.70 18.27 18.07 17.50 15.80 15.75 15.18 13.98 12.84 12.32 10.85 10.59 10.27 11.22 13.37 15.64 18.16 22.37 20.74 21.14 23.27 27.74 29.52 32.32 34.56
17.19 18.28 14.77 14.25 11.65 15.12 23.33 24.66 25.28 11.50 17.55 25.65 25.67 24.03 20.55 17.73 19.85 20.13 19.19 17.60 17.40 16.40 15.52 16.09 14.45 12.44 12.58 12.97 11.32 9.40 9.07 8.77 11.10 13.25 14.82 16.61 19.05 22.69 22.66 24.26 27.30 29.10 31.89 34.66
15.85 14.38 13.42 15.39 11.29 8.21 25.79 23.38 18.40 24.76 27.23 26.45 24.82 21.88 18.13 18.16 17.74 17.18 15.71 14.86 14.17 13.42 13.70 13.72 11.53 10.26 11.34 11.67 10.31 7.55 7.29 9.87 11.24 11.77 11.78 12.18 14.69 22.62 25.37 25.61 28.91 30.89 33.60 33.77
15.60 20.47 15.55 17.23 17.06 25.93 26.27 26.91 28.75 27.74 26.11 24.66 20.46 19.94 16.25 14.65 14.88 13.75 12.24 11.95 11.69 11.73 11.31 11.90 8.61 7.37 8.80 9.38 9.23 5.43 7.27 9.82 8.83 6.90 7.70 10.64 14.71 19.42 27.30 27.18 30.43 33.12 33.64 34.13
23.13 25.53 20.54 18.61 23.23 24.47 26.08 27.64 27.60 25.65 24.75 21.38 18.68 15.84 14.07 12.30 11.99 9.31 9.55 9.31 8.75 9.59 8.77 8.12 6.29 4.17 4.53 6.52 6.99 6.55 7.87 7.10 4.78 6.32 10.53 15.07 17.18 20.26 25.56 31.43 33.38 33.44 33.85 34.33
24.50 23.78 22.00 21.86 24.84 26.18 27.40 28.55 29.08 23.08 20.29 17.48 15.81 13.87 12.13 10.68 8.37 7.93 6.22 6.27 7.12 6.86 6.36 5.81 3.69 2.65 2.06 4.83 4.00 5.15 5.35 3.58 5.06 9.39 14.05 16.73 20.30 22.74 24.61 31.39 33.86 34.13 34.72 35.79
24.45 23.09 19.92 19.86 26.54 26.03 26.95 27.10 24.55 21.54 18.60 16.26 11.70 10.22 10.25 8.66 7.18 6.68 4.19 5.91 5.53 3.88 4.14 2.52 1.41 1.26 0.86 1.34 1.74 3.69 2.10 2.29 4.96 8.87 11.29 13.21 18.67 27.18 26.90 30.38 33.06 35.68 35.80 36.58

GFSCGP_sfc_wetblb_003.txt.gz
Wetbulb
48.38 43.61 42.87 44.37 42.65 42.01 41.46 40.53 39.79 42.27 43.66 41.17 39.80 39.73 40.49 37.90 37.99 37.19 36.44 36.65 36.84 37.16 38.93 39.60 40.33 40.68 40.71 41.31 42.40 42.62 41.95 43.70 44.66 46.21 47.96 47.66 47.07 48.67 50.96 53.01 56.23 60.64 60.98 59.37
46.57 44.03 44.08 43.17 43.06 42.01 41.45 39.45 38.74 41.24 43.10 40.29 38.87 38.19 38.61 36.25 35.15 36.38 35.36 35.75 36.12 36.60 36.94 37.81 38.77 39.75 39.83 39.79 41.28 42.16 41.60 41.94 43.31 44.57 46.77 47.46 46.42 45.64 48.06 50.87 52.85 52.54 60.00 60.16
41.66 44.34 42.36 41.87 42.21 40.33 40.18 37.91 37.85 36.26 39.58 40.67 38.79 36.50 35.31 35.47 35.45 35.88 36.42 37.07 36.77 35.71 35.50 36.66 37.42 37.81 39.50 39.24 40.44 40.87 41.70 41.79 42.25 43.51 44.74 45.61 46.76 45.16 44.06 44.71 46.55 49.86 51.25 58.67
40.57 42.56 41.19 41.23 39.85 39.20 35.78 38.15 37.00 36.19 35.03 31.64 38.19 28.63 35.47 34.10 34.41 34.20 35.08 35.48 35.32 35.28 36.01 36.46 36.62 37.16 37.83 39.17 41.00 41.21 41.76 41.36 41.67 43.28 42.83 42.11 41.95 42.12 42.85 43.44 44.47 47.24 49.39 50.71
40.07 38.49 38.71 37.80 38.71 38.97 37.80 37.04 36.13 36.32 34.64 34.25 34.21 31.19 35.80 36.98 35.02 32.07 33.69 34.15 34.43 35.04 35.53 35.19 36.12 37.24 38.58 39.67 40.00 40.60 41.02 40.81 41.31 42.12 41.88 41.04 40.97 43.44 44.68 43.75 43.25 44.75 47.88 49.35
39.64 41.76 40.52 40.72 39.95 38.11 37.26 37.11 36.75 36.58 34.73 27.00 32.92 30.05 32.47 34.22 32.15 31.16 33.13 33.54 33.81 34.37 34.84 35.17 36.61 37.72 37.87 39.17 39.38 39.89 39.72 39.30 40.68 40.52 40.81 40.48 40.20 40.57 42.04 42.43 41.93 42.42 46.30 48.15
39.46 39.12 39.59 38.53 36.48 38.81 37.21 34.39 27.73 28.37 29.18 27.90 31.79 27.60 31.19 31.78 31.72 31.66 31.68 32.32 33.33 34.29 33.90 34.46 35.21 35.98 36.62 36.92 37.60 38.25 37.89 36.98 38.46 38.35 39.18 39.59 39.74 40.59 40.95 42.13 41.50 41.35 41.31 41.91
34.18 33.05 37.07 38.07 36.53 34.21 33.38 32.40 26.76 19.24 22.89 25.79 29.32 22.87 29.78 33.58 33.74 33.66 33.71 32.90 33.34 33.05 33.77 34.48 35.13 35.55 35.63 35.75 35.94 34.97 33.28 34.11 35.38 36.54 37.33 38.95 39.63 40.38 40.87 42.23 42.02 41.97 41.39 42.20
33.82 32.20 35.32 33.33 35.23 35.10 33.27 29.30 32.42 25.68 26.03 19.49 26.51 30.51 31.86 33.01 32.21 32.72 31.89 31.82 31.42 32.08 33.15 33.70 34.50 34.60 34.28 34.19 33.54 31.78 29.02 28.60 28.62 29.17 29.89 30.50 36.10 39.44 39.44 41.25 42.69 42.11 41.81 41.52
35.83 29.91 34.62 31.57 33.56 32.69 31.36 33.64 24.69 25.68 15.71 15.93 25.42 26.03 27.49 28.60 28.85 30.07 29.62 29.93 30.52 31.88 32.41 33.21 33.47 33.32 34.03 32.54 30.59 28.31 26.47 25.02 25.13 25.72 27.23 29.03 30.91 32.50 34.65 40.54 40.88 41.52 41.25 41.17
34.62 31.41 29.53 30.50 29.03 30.33 27.97 26.89 26.57 26.59 24.56 17.10 16.46 23.93 30.64 28.53 29.15 28.13 29.22 29.90 30.32 31.40 31.69 31.81 32.23 33.39 31.66 30.08 27.99 25.94 24.78 23.74 23.79 24.58 25.84 26.74 28.07 29.55 31.42 33.79 40.46 41.11 41.59 40.69
33.19 30.90 26.45 29.44 30.77 30.30 28.80 28.28 28.27 21.50 20.34 21.26 20.04 19.19 32.51 31.71 30.96 30.09 29.41 29.73 30.97 31.44 31.22 31.61 32.04 31.05 29.10 27.30 25.73 24.02 23.35 22.75 23.01 23.69 23.49 24.31 25.87 27.67 30.03 31.70 32.94 40.33 40.64 40.94
30.53 27.37 22.55 23.91 25.83 27.46 25.40 27.32 28.37 27.78 24.04 18.69 15.44 20.17 31.47 31.47 32.04 30.33 28.78 29.36 30.42 30.10 29.99 30.93 30.16 28.34 26.72 25.42 23.26 22.99 21.94 21.00 21.92 21.57 21.89 22.56 23.28 24.69 25.96 27.70 30.32 33.35 34.99 39.96
33.20 28.50 26.71 25.15 29.05 26.47 22.69 25.30 26.61 24.78 19.09 19.45 19.64 22.00 27.55 29.28 28.60 28.59 28.16 29.34 29.48 28.72 29.51 28.69 27.73 26.44 25.55 23.88 21.87 20.90 20.68 19.96 19.75 20.36 19.67 20.35 22.32 23.19 24.18 25.76 27.25 27.45 30.45 33.79
29.65 24.03 26.68 27.47 28.58 27.31 25.56 24.56 24.49 21.79 23.41 19.45 22.20 22.79 26.43 28.21 27.86 27.17 28.77 29.11 28.00 27.80 27.44 26.35 25.20 24.52 23.72 21.76 20.41 19.76 18.86 18.85 17.59 16.95 17.19 16.80 19.17 20.39 22.51 23.27 23.70 25.03 26.89 31.78
29.33 22.90 24.25 19.08 24.05 24.14 21.31 23.87 24.40 24.19 24.06 23.24 22.54 21.03 29.05 30.12 28.88 27.47 27.62 27.53 26.13 26.87 25.58 24.70 24.18 23.09 21.43 20.32 18.82 18.62 16.76 15.94 15.74 13.62 13.83 16.30 17.49 17.79 22.53 22.29 22.09 23.10 24.96 26.39
25.39 23.56 19.38 17.34 21.02 19.03 16.24 21.16 22.73 24.03 25.49 23.80 18.40 24.26 29.09 26.72 25.95 26.44 26.43 26.14 26.15 24.64 23.41 22.81 22.38 21.17 20.04 18.80 18.80 15.55 15.59 15.11 13.41 13.13 13.69 13.76 15.48 16.27 21.63 21.76 21.27 21.57 23.70 26.37
24.17 22.93 20.96 16.91 17.65 11.49 23.49 25.98 25.22 24.28 25.84 26.96 25.87 26.60 27.16 26.28 27.61 27.99 28.32 26.54 24.04 22.78 21.74 21.05 20.55 19.51 18.76 18.32 17.15 15.96 14.84 13.59 12.85 12.25 12.00 13.48 14.72 15.72 17.01 19.41 21.19 21.49 23.04 24.85
28.61 22.84 18.37 14.69 14.60 19.94 22.34 25.61 21.88 19.64 21.30 25.80 25.13 26.27 26.54 27.36 26.83 25.66 29.06 25.46 22.90 21.91 21.30 20.41 19.92 18.71 17.27 16.05 15.48 13.24 12.43 12.60 11.79 11.12 12.01 12.67 12.65 12.30 14.52 15.62 20.17 21.63 22.51 25.31
25.63 25.71 19.79 16.96 11.59 11.34 20.69 23.67 26.29 24.71 15.65 27.52 26.89 25.27 25.13 25.18 17.66 23.15 26.36 23.69 21.93 21.23 19.78 18.42 18.32 16.39 15.27 14.26 13.46 11.01 9.79 10.41 9.42 10.83 10.84 12.52 12.53 11.54 12.06 14.51 16.78 22.30 22.72 26.68
18.23 18.83 15.20 16.14 13.45 17.57 26.25 25.38 26.49 13.41 18.98 26.18 26.80 26.40 25.23 21.55 24.38 25.40 23.77 21.61 20.75 19.06 17.59 17.91 15.42 13.28 12.83 12.69 11.27 8.56 8.22 7.62 9.23 10.74 10.20 10.07 10.78 10.64 11.85 13.49 16.79 23.38 23.40 26.19
16.91 15.29 15.36 16.80 14.60 11.13 29.17 23.98 19.15 26.16 27.55 27.93 27.41 26.70 23.38 23.47 22.35 21.45 20.54 18.44 17.03 15.39 14.87 14.49 12.10 10.46 10.88 10.86 8.98 6.31 5.81 8.19 8.85 7.51 6.47 7.52 10.02 13.19 15.58 15.14 17.42 26.02 26.06 27.23
17.27 22.02 18.71 20.03 19.57 27.59 28.64 28.25 28.98 29.65 27.47 27.77 26.04 25.34 21.17 19.29 19.31 18.48 16.11 14.79 13.83 13.01 12.39 11.98 8.86 7.64 8.78 9.16 7.29 4.30 5.48 6.71 5.25 2.64 4.67 9.86 14.61 17.27 20.83 19.08 20.10 26.66 27.77 30.26
23.51 26.92 21.61 20.37 24.16 25.45 27.48 29.07 29.99 29.13 27.55 27.14 23.85 21.06 18.25 16.80 16.59 13.10 12.99 11.82 10.46 11.05 9.53 8.65 6.37 4.71 4.35 5.93 5.67 5.01 4.36 4.00 0.44 1.33 7.23 12.04 12.05 14.46 18.69 23.70 25.29 30.02 31.48 33.43
24.95 25.37 22.63 22.68 26.00 27.75 28.48 29.52 30.13 28.19 25.55 21.49 19.54 18.35 16.79 14.52 12.44 11.65 9.71 8.51 9.01 8.52 7.29 6.31 4.17 3.00 2.29 3.53 3.02 3.54 2.64 0.49 -0.50 2.78 8.60 9.25 11.19 12.58 15.56 21.56 28.34 29.89 34.80 35.33
25.95 23.79 20.80 20.59 27.57 26.92 28.23 30.30 30.59 27.71 22.93 22.00 19.37 15.26 13.92 11.23 10.87 9.79 7.23 8.03 7.20 5.04 4.83 2.73 1.69 0.98 0.85 0.42 -0.32 0.47 -0.28 -1.42 -0.29 2.34 6.45 6.93 9.36 10.48 12.68 14.90 17.87 31.60 35.37 35.84

GFSCGP_sfc_wetblb_006.txt.gz
Wetbulb
46.63 39.95 38.90 40.33 39.07 38.19 37.45 36.28 35.42 39.19 40.87 36.28 36.82 36.51 38.01 36.98 35.18 32.71 31.84 31.85 31.93 32.73 34.44 35.44 36.06 35.26 35.64 35.42 36.29 37.29 37.80 38.50 39.25 38.78 37.54 38.01 38.34 40.89 43.00 44.29 44.77 45.89 48.54 48.61
43.36 39.84 40.87 41.32 40.47 39.60 38.11 35.81 35.32 37.96 40.59 37.11 36.17 36.04 34.87 35.27 34.51 33.72 32.50 31.27 31.44 32.12 32.64 34.07 34.56 34.12 34.62 35.03 36.01 36.90 37.68 38.24 38.68 39.12 38.52 38.41 38.78 40.18 41.40 44.10 44.44 44.49 44.63 46.45
38.10 42.30 41.95 40.08 38.72 38.10 36.60 34.80 33.65 33.44 36.60 37.27 35.35 32.51 30.67 33.03 33.43 34.17 33.98 33.25 32.58 31.42 31.62 32.55 33.26 32.25 34.26 34.61 35.47 36.78 37.36 37.67 38.07 38.94 38.60 38.07 38.83 39.29 38.70 39.56 41.80 43.90 44.08 44.66
38.42 40.14 39.73 38.31 37.94 37.70 32.77 35.15 34.89 34.19 30.40 25.79 33.38 23.47 29.54 30.12 30.25 32.08 32.41 30.06 29.62 29.99 31.93 32.32 32.24 33.13 33.84 34.89 36.09 36.33 36.72 36.62 37.39 37.90 36.51 35.96 34.60 34.55 37.17 38.38 40.50 41.91 44.12 44.03
38.09 36.21 35.68 35.75 36.69 37.55 35.11 34.90 33.31 32.77 30.28 28.94 29.73 25.05 28.96 30.93 28.06 29.83 30.16 30.34 29.41 29.56 30.62 30.51 32.14 33.92 34.58 35.26 34.92 35.17 34.99 35.17 35.55 33.83 32.70 32.86 33.76 34.42 35.06 37.61 37.92 39.39 42.31 43.72
38.09 39.68 37.41 36.38 38.92 36.91 37.04 34.08 33.84 33.16 29.90 20.95 28.06 26.52 26.85 27.44 30.58 29.02 29.94 28.92 30.05 29.48 29.41 31.64 33.66 34.21 33.88 34.25 34.02 33.67 33.19 32.42 32.23 30.24 28.61 27.77 28.20 28.18 31.08 34.10 35.29 37.28 39.77 42.32
37.28 36.54 36.85 37.17 33.98 36.00 34.15 29.87 21.49 20.79 19.73 19.83 27.52 22.84 27.14 28.44 29.66 29.37 28.82 27.87 28.16 28.39 30.05 30.69 31.45 31.68 32.37 32.07 32.64 31.89 30.32 28.48 28.03 26.38 25.63 25.69 25.59 26.22 27.19 28.94 33.34 36.39 38.22 40.57
30.62 29.28 34.94 36.61 33.29 29.45 30.68 28.92 20.75 13.54 16.35 19.00 25.11 19.22 26.27 30.58 30.90 31.25 30.64 29.44 29.47 28.97 29.59 30.68 31.13 31.33 31.23 31.93 31.02 29.46 27.94 26.46 26.01 24.89 24.09 24.61 24.64 24.76 25.97 28.59 29.61 30.19 36.46 39.88
31.96 31.37 33.13 32.58 33.49 32.48 29.87 24.60 29.02 21.72 12.40 12.11 19.43 26.29 28.66 29.71 29.41 29.44 28.61 28.72 27.19 28.09 29.32 29.90 30.82 30.94 30.89 30.50 29.28 28.07 26.42 25.24 24.51 23.52 23.29 23.06 23.49 23.72 24.39 25.83 27.87 29.09 31.63 38.56
32.67 27.14 31.92 29.36 30.65 29.95 27.39 30.81 21.37 21.33 7.79 7.81 19.26 22.07 23.24 24.52 26.40 27.13 25.94 25.79 25.91 27.88 29.30 29.40 29.80 30.06 30.70 29.87 28.68 27.50 25.87 23.62 23.41 22.50 22.19 22.15 22.20 22.57 22.89 24.30 24.49 27.21 30.25 32.13
31.49 30.45 26.43 28.72 25.98 26.46 24.14 22.40 24.06 25.00 21.91 12.73 9.69 17.55 27.06 26.15 27.53 24.84 25.30 27.16 26.84 27.57 27.74 28.49 29.14 29.97 29.65 28.69 27.30 25.80 24.33 22.46 21.48 21.36 20.42 19.82 19.55 20.64 22.39 22.47 23.72 26.08 29.11 29.70
31.15 29.62 23.35 27.10 28.25 28.28 26.22 26.23 25.69 15.68 15.91 17.51 16.12 19.03 30.79 29.15 28.24 27.43 26.57 27.13 26.47 28.12 27.80 28.40 28.55 28.66 27.83 26.64 25.47 24.19 23.04 21.45 21.11 20.27 18.85 18.87 18.28 19.75 18.70 20.68 22.91 24.71 24.93 29.35
28.97 26.15 22.09 23.54 23.16 26.07 22.76 24.23 24.64 24.63 22.86 17.06 14.92 17.08 28.87 29.19 28.03 27.59 25.70 24.71 26.84 27.71 27.77 28.34 27.85 26.66 25.85 25.01 23.76 22.62 21.77 20.53 20.57 18.96 17.70 16.51 16.47 16.65 17.60 17.78 19.15 21.06 23.02 24.20
34.37 27.77 25.55 27.33 28.72 26.03 20.97 22.16 24.05 23.23 18.79 19.72 19.57 21.57 26.58 29.14 28.90 26.30 25.05 25.14 25.61 26.74 27.30 27.11 25.59 24.93 24.51 23.69 21.98 20.92 20.15 20.14 18.79 17.87 16.59 14.94 14.48 14.79 15.42 17.20 18.35 18.89 21.42 22.62
29.86 23.29 25.18 26.10 26.08 25.05 24.13 23.10 22.75 21.37 22.78 19.72 22.59 22.34 26.69 28.10 25.02 23.90 23.43 26.06 25.88 25.90 26.21 24.50 23.39 22.86 22.56 21.35 20.31 19.58 19.13 18.24 17.50 15.47 14.85 14.46 14.79 15.19 15.36 14.81 16.03 17.31 21.34 22.56
28.64 22.33 25.36 21.43 22.86 22.41 20.37 22.50 22.65 23.53 23.78 22.48 23.17 22.17 29.71 30.22 27.76 22.87 25.17 24.60 24.14 24.09 23.17 23.05 22.70 22.00 20.94 20.01 18.70 19.00 16.85 16.24 15.71 14.13 13.58 14.24 14.21 14.05 14.08 14.77 15.92 17.59 20.76 21.32
26.46 23.06 20.65 18.92 20.58 19.94 14.96 19.68 21.30 23.28 24.77 24.20 18.82 24.18 28.32 25.60 24.79 22.78 23.15 23.78 23.32 22.36 22.21 21.47 20.63 19.84 19.36 17.95 18.44 14.94 15.11 15.08 13.78 13.73 12.59 12.98 13.01 13.22 13.32 14.10 14.29 14.69 15.56 18.30
25.73 23.09 22.27 16.99 19.20 11.15 22.85 23.10 22.08 21.79 24.41 26.34 26.29 27.31 25.48 23.61 23.97 24.64 25.08 21.29 21.54 21.66 21.03 20.11 18.94 17.75 17.25 17.07 15.55 15.02 14.04 13.27 12.86 11.99 11.40 12.41 10.90 10.87 12.07 12.27 12.81 13.58 14.79 16.55
28.75 24.36 18.31 15.38 14.61 18.96 22.90 23.29 19.29 18.29 19.40 25.33 25.72 27.17 25.37 24.55 23.41 22.54 23.54 22.01 20.27 20.06 19.84 18.84 18.40 17.20 15.96 14.69 14.31 12.71 11.35 12.01 11.12 10.75 9.93 9.72 9.74 7.88 9.22 8.34 10.25 11.92 12.80 14.63
27.29 26.70 21.30 16.84 11.98 8.82 17.94 20.77 24.34 24.03 13.55 25.53 26.01 23.77 23.30 23.15 12.94 18.05 20.99 21.15 20.13 19.52 18.57 17.01 16.50 15.50 14.36 13.05 12.57 10.10 9.27 8.85 8.73 8.74 8.60 8.64 7.91 6.31 6.67 8.84 10.05 11.67 12.32 14.64
19.43 19.68 16.52 16.94 14.65 16.22 24.78 23.12 25.08 12.13 19.17 24.32 24.68 23.73 23.19 20.29 21.45 21.15 21.17 18.40 18.79 17.49 16.24 16.00 14.29 12.44 11.70 11.58 10.19 7.24 7.04 6.84 8.33 8.05 6.57 5.37 6.43 6.18 10.44 13.62 14.74 13.10 12.87 15.66
17.17 15.10 14.57 16.41 13.32 10.80 26.28 22.43 18.57 23.50 25.51 25.48 24.47 24.59 23.64 23.27 21.49 19.99 18.84 16.80 15.54 13.69 13.52 13.83 11.07 9.64 10.17 10.10 7.29 4.70 4.46 7.18 6.50 4.76 2.65 3.27 5.33 11.34 12.95 13.53 15.86 18.25 14.95 15.05
17.17 21.37 18.02 18.77 18.38 26.03 25.90 25.01 27.02 27.17 25.62 25.24 24.81 24.24 22.98 20.76 19.12 18.35 15.49 13.70 12.93 12.22 11.81 11.35 7.86 7.10 7.79 7.96 5.72 1.26 3.80 4.92 3.26 -0.60 -0.21 3.41 8.48 9.47 12.09 12.25 14.65 20.26 19.07 19.09
23.28 26.85 21.84 21.67 24.59 25.58 26.69 28.08 27.71 27.59 26.21 26.00 24.88 21.79 19.89 17.62 16.96 14.24 13.98 12.71 10.81 10.77 9.27 7.76 5.60 3.89 3.47 4.26 3.82 2.18 2.27 2.14 -1.72 -2.89 0.98 4.88 6.24 7.55 9.84 12.29 14.35 16.63 20.97 26.16
24.17 24.89 23.41 22.71 24.98 26.25 26.81 27.49 28.30 26.70 25.56 22.62 20.81 19.78 18.58 16.68 13.47 12.99 10.62 9.26 9.11 8.30 6.77 5.58 3.07 2.01 1.00 1.74 0.28 -0.33 -0.75 -2.18 -3.50 -0.54 2.71 3.23 4.83 6.28 7.46 10.36 11.30 14.39 17.78 22.22
26.10 23.43 21.60 20.99 27.35 26.80 26.10 28.42 28.31 25.49 22.76 21.37 18.26 14.83 15.69 15.51 12.70 10.44 8.08 8.32 7.19 4.88 4.29 1.77 0.64 -0.49 -0.87 -1.85 -2.90 -3.50 -4.10 -4.73 -4.14 -1.09 0.78 1.78 2.79 4.84 5.88 6.63 7.28 13.57 16.99 20.63

GFSCGP_sfc_wetblb_009.txt.gz
Wetbulb
43.07 38.31 35.57 36.09 35.07 35.35 34.57 33.11 31.81 35.31 39.39 36.59 35.03 35.47 33.96 34.85 31.92 29.36 29.24 29.71 29.78 30.64 31.30 33.39 33.32 32.34 32.22 32.23 32.04 33.63 35.43 36.06 36.40 35.75 34.72 35.02 35.76 36.57 36.96 37.93 39.44 40.79 42.81 43.62
38.21 35.99 39.72 39.91 38.58 37.27 35.84 33.51 32.04 35.78 37.51 34.91 34.02 33.69 36.54 33.92 32.21 31.03 29.90 29.43 29.31 29.69 30.29 31.78 31.24 31.09 30.54 30.70 31.74 34.32 34.93 35.18 35.21 35.08 35.42 35.63 34.52 34.72 35.80 37.12 38.26 40.10 40.76 41.96
35.54 39.35 39.88 38.16 35.68 35.56 34.10 32.23 31.12 32.55 34.25 34.55 32.42 29.41 30.14 31.77 32.10 31.55 31.61 30.74 29.88 29.76 29.85 29.77 31.23 29.76 29.50 30.03 30.65 33.80 34.21 34.19 34.22 34.16 33.39 32.62 32.03 31.34 31.19 33.53 35.29 36.60 37.67 40.60
35.86 38.58 37.44 35.57 35.83 36.42 30.68 33.76 33.04 32.18 28.42 24.10 30.03 22.98 25.57 28.19 29.45 30.64 30.28 27.44 28.06 29.01 30.11 29.86 29.67 28.95 28.88 30.60 31.17 32.91 33.37 33.06 33.14 31.89 29.74 27.37 25.20 23.69 26.20 27.47 29.56 30.27 35.22 38.14
37.72 34.65 34.47 33.95 34.74 36.25 33.37 33.45 31.89 30.73 28.20 24.73 27.11 22.77 26.05 28.97 26.72 28.33 27.32 27.15 27.62 28.70 29.47 27.83 29.45 31.09 31.10 31.11 30.24 30.52 30.75 31.48 31.15 29.85 28.19 25.91 23.97 24.43 25.07 25.17 24.96 27.16 30.93 35.67
36.69 37.10 35.83 34.91 36.54 35.48 35.29 32.34 31.36 29.09 25.85 18.84 26.12 25.76 22.70 23.65 28.33 28.30 26.82 26.87 28.54 28.59 27.90 28.21 30.39 31.00 30.32 29.43 29.70 29.77 29.90 29.98 29.76 28.24 26.90 24.99 23.10 22.47 22.23 22.45 22.72 25.29 28.72 30.73
34.52 33.60 34.25 36.26 32.22 34.11 32.35 27.01 21.44 18.55 17.30 19.63 24.11 21.79 27.82 28.62 29.83 29.83 25.93 26.19 27.21 27.81 27.01 27.52 27.74 28.14 29.04 28.74 29.29 30.07 29.58 28.14 28.11 26.72 25.40 24.46 23.15 22.43 21.43 21.64 22.17 23.13 24.62 26.69
28.00 27.62 32.76 34.62 32.09 30.78 30.00 27.83 21.63 15.19 15.06 20.00 24.13 20.70 25.53 27.51 28.99 28.42 28.12 27.25 27.42 26.90 27.26 27.41 27.63 27.67 28.10 28.45 29.49 28.93 27.87 26.85 26.77 25.43 24.34 24.05 22.91 21.98 21.25 21.93 21.75 21.23 21.95 24.36
28.76 28.93 30.80 31.01 31.80 31.78 28.21 24.72 28.02 22.57 6.86 10.01 19.02 23.16 26.32 26.92 26.85 26.40 25.98 26.24 25.49 26.62 26.70 27.36 27.77 27.51 27.24 27.24 28.67 27.16 26.83 26.14 25.47 24.37 23.43 22.64 22.33 20.78 19.53 20.09 19.83 20.88 23.37 24.95
31.30 26.80 29.08 28.01 29.46 28.83 27.77 30.24 22.68 23.07 15.44 7.08 16.45 20.21 23.91 22.74 24.68 24.89 24.64 24.36 25.68 25.52 26.07 26.62 26.66 27.04 27.34 27.24 27.19 26.97 26.15 24.81 24.24 23.52 22.75 22.32 20.99 20.19 19.83 18.74 19.34 19.87 20.06 22.01
30.77 28.54 26.09 27.04 24.96 25.38 22.84 23.13 24.59 24.70 22.64 16.61 10.81 19.78 25.57 26.21 26.75 24.06 24.44 25.58 25.53 25.61 25.81 25.99 26.20 26.60 26.51 25.89 25.31 25.48 24.60 23.36 22.49 22.33 21.54 20.75 20.12 19.87 19.00 18.14 18.17 18.26 21.28 20.79
30.75 27.14 21.11 24.89 27.38 27.95 25.98 25.62 26.56 22.15 19.43 19.35 19.32 20.52 29.53 28.98 27.92 25.62 25.00 25.95 26.50 27.31 26.35 25.19 25.52 25.18 24.58 24.41 24.64 23.81 23.11 21.80 21.64 20.92 20.13 19.63 19.36 18.69 17.57 16.78 16.77 17.28 17.07 19.03
29.51 24.35 17.51 25.07 21.98 25.05 23.32 23.45 25.45 25.19 23.91 19.54 16.62 19.17 27.58 27.22 25.93 25.98 23.81 24.58 26.13 25.88 24.59 25.02 24.24 23.25 23.39 23.09 22.93 22.06 21.36 20.43 20.28 19.19 18.39 18.08 17.19 16.91 16.31 16.21 16.69 16.96 17.15 16.79
33.73 26.24 28.31 27.25 31.27 26.46 22.81 21.61 24.82 24.88 21.10 21.29 21.68 23.89 25.67 25.46 25.43 24.06 23.50 24.83 24.31 24.14 24.14 23.19 22.05 22.44 22.22 22.25 21.04 20.21 19.62 19.67 18.33 17.53 16.43 15.71 15.89 16.24 15.45 16.12 15.54 15.44 15.81 15.86
29.27 22.41 24.62 27.89 28.10 26.61 26.83 26.18 24.43 22.44 24.21 21.09 23.50 24.22 28.52 30.82 30.23 28.42 24.75 24.70 23.43 23.01 22.91 21.72 21.66 21.78 21.07 20.40 19.76 19.04 18.73 17.53 16.93 15.23 14.51 14.85 15.99 15.76 15.23 14.54 14.90 15.14 15.55 16.47
27.85 22.96 25.66 24.06 25.95 25.77 23.62 24.85 24.40 24.59 25.18 24.69 24.73 23.88 31.96 31.90 26.94 23.11 23.46 23.77 23.27 22.21 21.66 22.21 22.33 21.79 20.81 19.95 18.47 18.85 16.32 15.42 15.34 13.46 13.97 15.02 14.58 14.79 13.72 12.53 13.04 13.51 13.81 14.06
25.51 24.03 22.52 22.45 24.67 21.87 18.37 21.88 22.98 24.69 26.20 25.84 19.86 26.12 31.08 28.52 25.48 23.26 22.76 23.32 22.21 21.94 21.64 21.05 20.15 19.22 18.88 17.21 17.90 14.43 14.32 14.43 13.18 12.89 13.01 13.04 13.79 11.62 11.58 11.36 10.88 11.29 11.57 12.72
26.13 25.13 23.41 18.98 20.74 14.54 26.49 22.77 24.81 24.15 25.70 27.15 27.13 28.52 28.20 24.33 23.98 23.84 23.75 21.79 21.76 21.37 20.55 19.62 18.06 16.38 15.88 16.02 14.92 14.17 13.79 12.42 11.63 11.11 11.40 12.18 10.62 9.37 9.12 8.76 9.03 9.71 10.89 11.54
31.92 27.33 20.07 17.80 16.49 21.71 25.70 27.21 19.77 19.46 24.43 25.63 25.64 27.51 26.52 23.39 22.39 19.34 21.78 21.04 20.01 19.02 18.53 17.55 17.25 16.23 14.65 13.97 13.39 11.76 10.66 10.30 9.38 9.14 9.50 9.27 8.20 5.98 6.37 5.82 7.76 9.70 10.74 11.64
28.40 29.29 24.83 17.44 13.35 10.49 20.06 20.23 23.32 23.58 15.99 24.43 26.19 24.58 22.07 21.81 14.38 17.88 20.63 20.31 19.21 18.34 17.21 16.04 15.61 14.53 13.63 12.34 11.71 9.19 8.05 7.33 6.52 7.64 7.57 7.38 5.88 4.05 5.32 7.82 10.44 11.87 13.28 15.55
20.71 21.41 18.34 19.33 16.80 17.79 24.31 22.62 24.71 14.09 21.48 23.63 24.48 22.68 22.11 20.47 21.72 21.45 20.51 18.54 18.14 16.58 15.30 14.97 13.41 11.72 11.07 10.95 9.38 6.16 5.92 4.63 6.24 6.12 5.34 4.20 3.80 4.95 8.15 8.97 10.18 11.37 12.83 15.99
19.67 17.69 16.61 18.57 14.54 12.88 26.00 22.72 20.74 25.01 24.61 24.41 23.49 23.32 23.26 23.18 21.08 20.16 18.78 16.59 15.32 13.45 13.12 13.44 10.74 9.17 9.69 9.29 6.13 3.73 2.67 5.37 4.15 3.13 0.97 0.92 2.93 6.20 7.91 7.57 8.51 10.79 12.18 14.78
21.54 24.00 18.57 20.65 20.67 25.94 26.50 25.47 28.05 26.96 25.02 24.56 23.84 24.06 24.45 22.62 21.45 19.77 16.74 14.65 13.51 12.14 11.80 11.13 7.56 6.71 7.16 6.78 4.69 0.34 2.13 2.59 0.85 -2.82 -3.15 1.30 4.57 5.05 6.74 6.59 7.03 8.12 10.87 13.38
23.15 28.36 23.55 22.49 26.25 24.89 25.30 27.67 28.32 27.32 26.28 25.89 25.57 24.14 23.02 20.83 19.72 16.66 15.43 14.19 12.23 11.08 9.32 7.50 5.25 3.61 2.98 3.27 2.66 0.77 0.34 -0.89 -5.40 -6.24 -1.63 3.63 3.15 3.01 5.39 6.62 7.22 7.37 9.15 10.19
26.35 26.17 24.57 24.07 25.99 26.61 26.90 27.41 27.64 26.79 26.32 24.83 23.14 22.27 22.25 20.09 17.52 16.18 13.49 11.26 10.02 8.72 6.90 5.35 2.75 1.78 0.47 0.62 -0.79 -1.59 -3.27 -5.05 -6.77 -4.02 0.45 2.20 2.03 1.84 3.44 4.98 4.54 7.10 10.02 12.89
26.23 24.81 23.07 22.48 28.02 29.03 27.97 29.41 28.56 25.99 24.77 24.50 21.43 18.50 19.36 19.65 16.14 13.76 11.02 9.90 8.08 5.76 4.10 1.76 0.79 -0.58 -1.63 -2.98 -3.61 -4.63 -7.14 -7.67 -9.25 -5.53 -1.52 0.48 0.54 1.09 2.32 1.88 1.60 8.36 11.26 13.50

GFSCGP_sfc_wetblb_012.txt.gz
Wetbulb
41.35 37.40 35.47 37.00 35.80 35.15 32.99 31.55 30.84 32.95 37.67 35.23 35.28 36.35 34.62 36.12 32.20 29.13 28.10 28.23 28.46 29.35 31.10 31.38 31.23 30.30 30.45 30.83 30.79 31.43 32.00 32.47 32.78 32.01 30.46 30.06 29.44 30.42 30.72 31.26 32.11 32.58 34.75 35.68
37.99 34.84 38.68 38.94 37.20 35.37 33.71 31.91 30.83 34.68 35.92 34.33 33.58 32.87 35.49 34.60 33.84 32.58 30.18 27.86 27.83 28.84 29.58 30.32 29.86 29.33 29.57 29.41 29.90 30.93 31.62 31.79 31.54 31.04 30.43 29.71 28.82 28.61 28.46 29.11 29.11 29.66 29.89 30.45
35.80 37.79 38.79 37.06 34.42 33.81 32.43 31.49 30.68 31.55 32.56 32.75 31.00 28.85 34.00 31.97 32.68 30.22 30.17 29.79 28.79 28.63 28.90 29.42 29.93 27.07 27.96 28.46 28.86 30.99 31.16 31.24 30.42 30.01 30.11 28.99 28.37 27.71 26.56 26.55 26.24 27.35 27.62 27.89
35.50 37.13 36.32 34.69 34.18 35.03 30.13 32.90 32.70 31.23 27.87 24.06 28.95 23.41 28.22 27.60 30.10 29.21 29.73 26.97 27.20 27.89 29.10 29.31 29.08 26.99 26.78 29.29 29.32 29.68 30.66 30.56 31.00 29.36 27.15 25.14 23.94 22.80 24.81 24.89 25.38 25.50 26.43 26.36
36.86 33.86 33.71 33.37 34.30 35.63 32.53 32.37 30.89 29.30 26.39 23.76 25.72 22.49 27.02 26.76 26.75 27.63 28.75 27.18 26.25 27.26 27.91 28.52 29.24 29.74 29.44 30.06 28.09 28.06 28.92 29.04 29.40 28.29 26.01 24.46 23.53 24.21 24.65 24.33 23.50 23.66 24.44 26.04
35.90 35.59 34.93 34.66 34.90 34.09 34.11 31.73 29.84 27.12 24.25 18.33 24.78 24.34 22.52 22.28 27.98 29.19 29.47 26.74 27.14 26.70 27.21 28.56 29.54 29.54 29.37 28.70 27.91 27.73 27.51 27.62 28.31 26.42 25.08 23.50 22.65 22.54 22.07 21.73 21.18 21.73 22.48 24.01
32.38 32.75 33.09 35.33 31.74 33.34 31.92 27.35 22.27 19.22 16.42 20.86 23.17 21.36 30.38 29.58 28.64 30.37 29.48 26.78 26.47 26.63 26.74 27.30 27.34 27.13 27.49 27.11 27.02 27.41 27.53 26.13 26.40 25.23 24.33 23.85 23.05 22.21 21.17 21.02 20.59 20.05 20.49 21.01
28.42 27.96 31.93 33.98 32.71 31.26 29.44 28.49 22.63 15.35 16.50 24.84 23.14 20.59 26.33 26.86 27.99 30.21 30.43 27.63 26.16 25.73 26.55 26.80 27.26 26.86 26.52 26.75 26.84 26.37 25.71 25.41 25.50 24.88 24.22 23.89 22.92 22.21 21.83 21.39 20.48 19.55 19.90 19.67
27.24 27.47 29.91 30.46 31.25 32.02 28.02 24.92 27.93 21.46 4.97 10.09 19.60 23.54 28.24 24.92 23.99 24.71 25.02 25.59 24.79 24.96 25.51 26.38 26.88 26.73 26.38 25.90 26.04 25.34 24.51 25.10 24.85 24.04 23.20 22.36 22.07 21.43 20.55 20.46 20.47 19.93 19.81 20.43
31.87 27.32 27.92 27.64 29.11 28.47 28.07 29.90 21.97 20.60 14.98 11.52 18.15 20.34 25.56 22.05 22.36 22.92 23.38 24.09 24.38 24.86 25.73 26.53 26.48 26.86 26.47 26.02 25.54 24.63 24.12 22.81 23.17 22.54 21.98 21.66 20.53 20.56 20.53 20.34 19.38 19.29 19.32 19.10
30.00 30.12 25.58 26.62 24.91 26.75 23.24 23.09 23.69 24.57 24.42 18.44 16.65 25.94 26.21 26.03 26.79 23.73 24.73 25.48 24.67 25.60 25.79 26.06 26.17 25.81 25.42 24.92 23.54 22.88 21.70 21.50 21.86 21.70 20.60 19.82 19.45 19.58 19.76 19.09 18.64 18.57 19.01 18.35
30.77 27.42 23.27 23.67 26.07 26.46 25.41 26.84 26.79 22.03 19.25 22.30 20.47 24.00 28.57 28.66 28.68 27.53 26.18 26.01 24.79 25.48 25.52 25.29 24.79 24.30 23.86 22.86 21.90 20.94 20.25 20.21 21.04 20.20 19.23 18.49 18.52 18.28 17.76 17.59 18.18 18.26 17.27 18.16
30.19 25.38 18.91 23.96 23.31 23.32 23.06 23.77 26.83 25.08 24.63 22.14 17.18 24.55 26.93 25.94 25.35 26.93 24.58 24.33 24.99 24.98 24.31 24.40 23.74 22.94 21.85 20.72 19.78 19.46 18.66 19.09 19.41 18.25 17.45 16.94 16.51 16.26 16.51 16.99 17.25 17.26 16.67 16.12
35.86 26.79 27.18 27.02 29.10 25.28 21.10 21.43 23.88 27.02 23.22 23.24 23.51 25.91 31.06 27.42 24.28 23.46 23.58 23.91 23.70 23.58 23.94 23.17 21.76 21.33 20.21 20.23 18.35 17.46 18.00 18.01 17.48 16.58 15.61 14.60 14.88 15.72 16.07 16.26 16.28 15.42 15.09 14.04
30.59 25.13 25.39 30.65 32.15 26.68 28.55 29.05 22.89 23.33 26.43 24.06 27.71 28.32 32.34 34.76 31.10 25.08 25.75 23.80 22.91 22.85 23.10 21.61 21.61 19.44 18.27 18.53 17.30 17.18 16.99 16.51 15.99 14.45 13.70 13.75 15.01 15.54 15.65 14.71 14.07 13.88 13.46 13.48
26.79 25.31 25.62 24.83 28.01 26.75 25.32 28.56 28.25 27.86 28.21 27.70 28.00 27.09 34.92 35.56 28.27 22.75 23.65 23.59 23.26 22.81 22.27 22.67 22.08 21.05 20.13 18.98 17.50 18.00 15.13 14.31 14.92 12.65 13.20 13.99 13.84 14.52 13.39 12.85 11.95 11.64 11.66 11.76
23.66 24.40 24.25 24.42 26.28 24.47 20.80 25.65 26.26 28.20 29.50 28.34 22.93 29.30 34.30 30.51 24.45 23.15 22.42 23.78 23.63 22.91 22.31 21.17 19.22 18.33 17.77 16.12 17.04 13.08 13.01 13.51 12.48 12.23 11.71 11.68 12.30 10.97 10.74 10.10 9.38 9.27 9.76 10.85
25.16 25.59 26.22 23.65 23.02 16.94 30.73 25.44 28.07 26.95 28.81 29.42 29.34 30.56 29.44 25.03 23.03 23.09 24.53 23.50 22.61 21.92 20.78 19.71 17.25 15.07 14.42 14.96 13.87 12.77 12.91 11.71 11.11 9.97 9.88 10.30 9.36 8.10 7.65 7.05 6.32 7.85 10.29 11.56
33.27 30.67 26.77 22.40 23.10 25.56 29.68 30.65 22.75 21.50 27.24 27.98 28.81 30.51 30.60 22.31 21.11 18.68 22.47 21.33 20.52 19.30 18.53 17.34 16.53 15.53 13.78 12.85 12.24 10.79 10.00 9.68 8.50 7.65 7.84 7.56 7.16 4.70 4.54 3.46 5.40 9.09 8.91 10.01
30.27 30.47 28.20 20.93 17.01 17.59 31.24 21.90 24.32 25.69 20.35 30.21 29.01 28.52 21.36 22.39 16.59 17.77 20.31 19.89 18.45 17.86 16.97 15.47 14.81 14.26 12.35 11.11 10.64 8.31 7.41 6.59 5.63 6.12 5.82 5.73 4.70 2.56 2.57 5.86 6.40 7.52 8.59 10.39
21.99 23.67 23.17 24.52 22.96 20.26 27.97 23.13 24.77 18.30 27.10 24.56 26.27 24.24 22.47 22.24 22.82 21.67 20.66 18.05 17.90 16.29 14.84 13.96 12.83 10.93 10.09 9.93 8.37 5.49 5.56 4.05 5.22 4.61 3.75 2.58 2.54 2.38 5.91 5.59 5.74 6.98 7.45 9.75
20.73 19.53 18.50 22.50 17.31 16.94 27.08 22.21 23.13 27.30 24.24 24.20 23.24 23.42 23.74 21.51 20.18 20.59 19.51 16.74 15.03 13.21 12.98 12.83 10.61 8.97 9.29 8.72 5.32 3.35 2.55 4.78 3.34 1.98 -0.49 -1.14 0.34 4.99 5.39 3.36 4.93 5.76 5.99 7.11
24.27 27.33 22.36 23.07 22.77 27.63 28.25 25.52 29.41 27.39 24.61 24.06 24.63 24.74 24.25 20.97 19.73 19.51 17.45 15.28 14.03 12.64 12.36 10.58 7.79 7.00 6.90 6.21 4.47 0.64 2.20 2.06 0.08 -4.16 -5.28 -2.06 2.98 4.08 4.12 2.99 4.01 3.81 4.81 5.79
23.69 28.79 26.12 24.82 30.67 27.68 25.83 28.44 29.33 27.39 27.21 26.72 26.66 25.75 25.03 23.16 21.30 18.97 16.89 14.95 12.89 11.68 9.50 7.88 5.86 4.28 3.42 3.24 2.86 1.03 0.17 -1.58 -6.62 -8.45 -3.86 1.13 1.74 1.81 3.14 4.07 4.99 3.72 4.24 4.36
29.23 28.08 27.64 26.70 29.96 28.63 30.48 28.33 28.56 27.51 27.19 25.96 25.40 25.32 25.51 23.86 21.57 19.12 16.29 13.72 11.96 10.04 7.94 6.32 3.98 2.57 1.11 0.80 -0.56 -1.33 -2.89 -5.94 -8.09 -4.85 -1.57 -0.87 0.22 0.29 1.76 3.43 2.98 5.16 6.85 8.91
28.70 30.39 27.02 28.41 31.58 32.59 32.12 28.88 29.32 27.15 25.65 26.31 25.22 22.58 22.58 24.12 20.76 18.15 14.84 12.42 10.20 7.80 5.24 3.14 1.80 0.13 -1.29 -2.62 -3.30 -4.44 -8.13 -9.72 -11.47 -7.67 -4.73 -2.95 -1.87 -0.65 0.75 0.54 0.88 7.42 10.22 11.51